Time,TemperatureF,DewpointF,PressureIn,WindDirection,WindDirectionDegrees,WindSpeedMPH,WindSpeedGustMPH,Humidity,HourlyPrecipIn,Conditions,Clouds,dailyrainin,SoftwareType,DateUTC
2013-03-04 00:00:00,34.2,27.1,29.61,North,3,3.0,3.0,75,0.00,,,0.00,WeatherCatV1.11B39,2013-03-04 05:00:00,
2013-03-04 00:05:00,34.1,27.0,29.61,SW,221,0.0,2.0,75,0.00,,,0.00,WeatherCatV1.11B39,2013-03-04 05:05:00,
2013-03-04 00:10:00,34.0,26.9,29.61,NNW,346,1.0,4.0,75,0.00,,,0.00,WeatherCatV1.11B39,2013-03-04 05:10:00,
2013-03-04 00:15:00,33.9,26.8,29.61,SW,235,0.0,1.0,75,0.00,,,0.00,WeatherCatV1.11B39,2013-03-04 05:15:00,
2013-03-04 00:20:00,33.9,26.8,29.61,NNW,348,0.0,3.0,75,0.00,,,0.00,WeatherCatV1.11B39,2013-03-04 05:20:00,
2013-03-04 00:25:00,33.8,26.4,29.61,ENE,58,5.0,5.0,74,0.00,,,0.00,WeatherCatV1.11B39,2013-03-04 05:25:00,
2013-03-04 00:30:00,33.7,26.3,29.61,North,0,2.0,5.0,74,0.00,,,0.00,WeatherCatV1.11B39,2013-03-04 05:30:00,
2013-03-04 00:35:00,33.6,26.2,29.61,SSW,210,0.0,3.0,74,0.00,,,0.00,WeatherCatV1.11B39,2013-03-04 05:35:00,
2013-03-04 00:40:00,33.5,26.1,29.61,SW,224,0.0,3.0,74,0.00,,,0.00,WeatherCatV1.11B39,2013-03-04 05:40:00,
2013-03-04 00:45:00,33.3,25.9,29.61,SW,214,1.0,5.0,74,0.00,,,0.00,WeatherCatV1.11B39,2013-03-04 05:45:00,
2013-03-04 00:50:00,33.3,25.9,29.62,West,269,0.0,0.0,74,0.00,,,0.00,WeatherCatV1.11B39,2013-03-04 05:50:00,
2013-03-04 00:55:00,33.2,25.8,29.62,SW,224,1.0,2.0,74,0.00,,,0.00,WeatherCatV1.11B39,2013-03-04 05:55:00,
2013-03-04 01:00:00,33.1,25.7,29.62,NNE,18,2.0,4.0,74,0.00,,,0.00,WeatherCatV1.11B39,2013-03-04 06:00:00,
2013-03-04 01:05:00,33.2,25.8,29.62,West,262,1.0,4.0,74,0.00,,,0.00,WeatherCatV1.11B39,2013-03-04 06:05:00,
2013-03-04 01:10:00,33.2,25.8,29.62,NNE,22,0.0,2.0,74,0.00,,,0.00,WeatherCatV1.11B39,2013-03-04 06:10:00,
2013-03-04 01:15:00,33.2,25.8,29.62,SSE,153,0.0,2.0,74,0.00,,,0.00,WeatherCatV1.11B39,2013-03-04 06:15:00,
2013-03-04 01:20:00,33.2,25.8,29.62,South,181,2.0,5.0,74,0.00,,,0.00,WeatherCatV1.11B39,2013-03-04 06:20:00,
2013-03-04 01:25:00,33.2,25.5,29.62,NNW,333,2.0,6.0,73,0.00,,,0.00,WeatherCatV1.11B39,2013-03-04 06:25:00,
2013-03-04 01:30:00,33.3,25.6,29.62,SSW,198,0.0,3.0,73,0.00,,,0.00,WeatherCatV1.11B39,2013-03-04 06:30:00,
2013-03-04 01:35:00,33.3,25.9,29.62,SSE,150,1.0,2.0,74,0.00,,,0.00,WeatherCatV1.11B39,2013-03-04 06:35:00,
2013-03-04 01:40:00,33.2,25.5,29.62,NE,46,1.0,1.0,73,0.00,,,0.00,WeatherCatV1.11B39,2013-03-04 06:40:00,
2013-03-04 01:45:00,33.2,25.8,29.62,SE,141,0.0,1.0,74,0.00,,,0.00,WeatherCatV1.11B39,2013-03-04 06:45:00,
2013-03-04 01:50:00,33.1,25.7,29.62,NW,315,0.0,2.0,74,0.00,,,0.00,WeatherCatV1.11B39,2013-03-04 06:50:00,
2013-03-04 01:55:00,33.1,25.7,29.62,SE,125,1.0,1.0,74,0.00,,,0.00,WeatherCatV1.11B39,2013-03-04 06:55:00,
2013-03-04 02:00:00,33.1,25.7,29.62,NW,325,0.0,1.0,74,0.00,,,0.00,WeatherCatV1.11B39,2013-03-04 07:00:00,
2013-03-04 02:05:00,33.1,25.7,29.62,NNE,12,3.0,7.0,74,0.00,,,0.00,WeatherCatV1.11B39,2013-03-04 07:05:00,
2013-03-04 02:10:00,33.1,25.7,29.62,NNW,346,0.0,4.0,74,0.00,,,0.00,WeatherCatV1.11B39,2013-03-04 07:10:00,
2013-03-04 02:15:00,33.0,25.6,29.62,NNE,23,1.0,3.0,74,0.00,,,0.00,WeatherCatV1.11B39,2013-03-04 07:15:00,
2013-03-04 02:20:00,32.9,25.2,29.62,NNW,327,2.0,4.0,73,0.00,,,0.00,WeatherCatV1.11B39,2013-03-04 07:20:00,
2013-03-04 02:25:00,32.9,25.5,29.62,SSW,208,1.0,6.0,74,0.00,,,0.00,WeatherCatV1.11B39,2013-03-04 07:25:00,
2013-03-04 02:30:00,32.8,25.4,29.62,SW,222,1.0,2.0,74,0.00,,,0.00,WeatherCatV1.11B39,2013-03-04 07:30:00,
2013-03-04 02:35:00,32.7,25.3,29.62,SSW,204,4.0,4.0,74,0.00,,,0.00,WeatherCatV1.11B39,2013-03-04 07:35:00,
2013-03-04 02:40:00,32.5,25.2,29.62,WSW,245,1.0,3.0,74,0.00,,,0.00,WeatherCatV1.11B39,2013-03-04 07:40:00,
2013-03-04 02:45:00,32.4,25.1,29.62,SSW,198,2.0,3.0,74,0.00,,,0.00,WeatherCatV1.11B39,2013-03-04 07:45:00,
2013-03-04 02:50:00,32.2,24.9,29.62,WSW,249,0.0,4.0,74,0.00,,,0.00,WeatherCatV1.11B39,2013-03-04 07:50:00,
2013-03-04 02:55:00,32.0,24.7,29.62,SW,221,0.0,2.0,74,0.00,,,0.00,WeatherCatV1.11B39,2013-03-04 07:55:00,
2013-03-04 03:00:00,31.9,24.9,29.62,SSW,202,0.0,0.0,75,0.00,,,0.00,WeatherCatV1.11B39,2013-03-04 08:00:00,
2013-03-04 03:05:00,31.7,24.7,29.62,SSE,165,0.0,3.0,75,0.00,,,0.00,WeatherCatV1.11B39,2013-03-04 08:05:00,
2013-03-04 03:10:00,31.6,24.6,29.62,South,191,1.0,3.0,75,0.00,,,0.00,WeatherCatV1.11B39,2013-03-04 08:10:00,
2013-03-04 03:15:00,31.5,24.5,29.62,SSW,208,1.0,2.0,75,0.00,,,0.00,WeatherCatV1.11B39,2013-03-04 08:15:00,
2013-03-04 03:20:00,31.4,24.7,29.62,NNE,26,0.0,4.0,76,0.00,,,0.00,WeatherCatV1.11B39,2013-03-04 08:20:00,
2013-03-04 03:25:00,31.4,24.7,29.62,SSW,210,1.0,1.0,76,0.00,,,0.00,WeatherCatV1.11B39,2013-03-04 08:25:00,
2013-03-04 03:30:00,31.3,24.6,29.62,SSW,209,0.0,0.0,76,0.00,,,0.00,WeatherCatV1.11B39,2013-03-04 08:30:00,
2013-03-04 03:35:00,31.2,24.5,29.62,WSW,250,0.0,3.0,76,0.00,,,0.00,WeatherCatV1.11B39,2013-03-04 08:35:00,
2013-03-04 03:40:00,31.1,24.4,29.62,SW,235,1.0,1.0,76,0.00,,,0.00,WeatherCatV1.11B39,2013-03-04 08:40:00,
2013-03-04 03:45:00,31.0,24.7,29.62,WSW,239,0.0,3.0,77,0.00,,,0.00,WeatherCatV1.11B39,2013-03-04 08:45:00,
2013-03-04 03:50:00,30.9,24.6,29.62,WSW,242,0.0,2.0,77,0.00,,,0.00,WeatherCatV1.11B39,2013-03-04 08:50:00,
2013-03-04 03:55:00,30.9,24.6,29.62,NNW,335,0.0,1.0,77,0.00,,,0.00,WeatherCatV1.11B39,2013-03-04 08:55:00,
2013-03-04 04:00:00,30.8,24.5,29.62,SW,233,0.0,2.0,77,0.00,,,0.00,WeatherCatV1.11B39,2013-03-04 09:00:00,
2013-03-04 04:05:00,30.8,24.5,29.62,WSW,243,0.0,1.0,77,0.00,,,0.00,WeatherCatV1.11B39,2013-03-04 09:05:00,
2013-03-04 04:10:00,30.7,24.4,29.62,West,260,0.0,6.0,77,0.00,,,0.00,WeatherCatV1.11B39,2013-03-04 09:10:00,
2013-03-04 04:15:00,30.6,24.3,29.63,NNW,330,0.0,2.0,77,0.00,,,0.00,WeatherCatV1.11B39,2013-03-04 09:15:00,
2013-03-04 04:20:00,30.6,24.3,29.63,North,351,1.0,2.0,77,0.00,,,0.00,WeatherCatV1.11B39,2013-03-04 09:20:00,
2013-03-04 04:25:00,30.6,24.3,29.63,SW,221,1.0,2.0,77,0.00,,,0.00,WeatherCatV1.11B39,2013-03-04 09:25:00,
2013-03-04 04:30:00,30.6,24.3,29.63,WSW,240,0.0,4.0,77,0.00,,,0.00,WeatherCatV1.11B39,2013-03-04 09:30:00,
2013-03-04 04:35:00,30.6,24.3,29.63,NNW,327,2.0,4.0,77,0.00,,,0.00,WeatherCatV1.11B39,2013-03-04 09:35:00,
2013-03-04 04:40:00,30.6,24.3,29.63,SSW,207,0.0,0.0,77,0.00,,,0.00,WeatherCatV1.11B39,2013-03-04 09:40:00,
2013-03-04 04:45:00,30.5,24.2,29.63,North,356,0.0,2.0,77,0.00,,,0.00,WeatherCatV1.11B39,2013-03-04 09:45:00,
2013-03-04 04:50:00,30.5,24.2,29.63,SW,231,2.0,2.0,77,0.00,,,0.00,WeatherCatV1.11B39,2013-03-04 09:50:00,
2013-03-04 04:55:00,30.4,24.1,29.63,NNW,337,1.0,2.0,77,0.00,,,0.00,WeatherCatV1.11B39,2013-03-04 09:55:00,
2013-03-04 05:00:00,30.4,24.1,29.63,SSW,207,0.0,2.0,77,0.00,,,0.00,WeatherCatV1.11B39,2013-03-04 10:00:00,
2013-03-04 05:05:00,30.3,24.0,29.63,WNW,300,0.0,3.0,77,0.00,,,0.00,WeatherCatV1.11B39,2013-03-04 10:05:00,
2013-03-04 05:10:00,30.3,24.0,29.63,SW,214,0.0,1.0,77,0.00,,,0.00,WeatherCatV1.11B39,2013-03-04 10:10:00,
2013-03-04 05:15:00,30.2,23.9,29.63,SSW,193,0.0,4.0,77,0.00,,,0.00,WeatherCatV1.11B39,2013-03-04 10:15:00,
2013-03-04 05:20:00,30.2,23.9,29.63,WSW,250,1.0,3.0,77,0.00,,,0.00,WeatherCatV1.11B39,2013-03-04 10:20:00,
2013-03-04 05:25:00,30.3,24.0,29.63,NE,50,0.0,4.0,77,0.00,,,0.00,WeatherCatV1.11B39,2013-03-04 10:25:00,
2013-03-04 05:30:00,30.2,23.9,29.63,WSW,242,0.0,1.0,77,0.00,,,0.00,WeatherCatV1.11B39,2013-03-04 10:30:00,
2013-03-04 05:35:00,30.1,23.8,29.63,WNW,296,0.0,1.0,77,0.00,,,0.00,WeatherCatV1.11B39,2013-03-04 10:35:00,
2013-03-04 05:40:00,30.0,23.7,29.63,SW,217,0.0,1.0,77,0.00,,,0.00,WeatherCatV1.11B39,2013-03-04 10:40:00,
2013-03-04 05:45:00,29.9,23.6,29.63,SSW,202,0.0,6.0,77,0.00,,,0.00,WeatherCatV1.11B39,2013-03-04 10:45:00,
2013-03-04 05:50:00,30.0,23.4,29.63,SSW,208,1.0,2.0,76,0.00,,,0.00,WeatherCatV1.11B39,2013-03-04 10:50:00,
2013-03-04 05:55:00,30.0,23.4,29.63,South,184,2.0,5.0,76,0.00,,,0.00,WeatherCatV1.11B39,2013-03-04 10:55:00,
2013-03-04 06:00:00,30.0,23.4,29.63,SE,127,1.0,1.0,76,0.00,,,0.00,WeatherCatV1.11B39,2013-03-04 11:00:00,
2013-03-04 06:05:00,29.9,23.3,29.63,SW,224,0.0,2.0,76,0.00,,,0.00,WeatherCatV1.11B39,2013-03-04 11:05:00,
2013-03-04 06:10:00,29.8,23.2,29.64,SSW,205,0.0,2.0,76,0.00,,,0.00,WeatherCatV1.11B39,2013-03-04 11:10:00,
2013-03-04 06:15:00,29.7,23.1,29.64,West,263,1.0,4.0,76,0.00,,,0.00,WeatherCatV1.11B39,2013-03-04 11:15:00,
2013-03-04 06:20:00,29.6,23.0,29.64,SW,232,1.0,1.0,76,0.00,,,0.00,WeatherCatV1.11B39,2013-03-04 11:20:00,
2013-03-04 06:25:00,29.6,22.7,29.64,North,356,1.0,6.0,75,0.00,,,0.00,WeatherCatV1.11B39,2013-03-04 11:25:00,
2013-03-04 06:30:00,29.6,22.7,29.64,WSW,242,0.0,1.0,75,0.00,,,0.00,WeatherCatV1.11B39,2013-03-04 11:30:00,
2013-03-04 06:35:00,29.6,22.7,29.64,WNW,294,0.0,2.0,75,0.00,,,0.00,WeatherCatV1.11B39,2013-03-04 11:35:00,
2013-03-04 06:40:00,29.5,22.6,29.64,SW,221,0.0,1.0,75,0.00,,,0.00,WeatherCatV1.11B39,2013-03-04 11:40:00,
2013-03-04 06:45:00,29.5,22.6,29.64,South,187,1.0,1.0,75,0.00,,,0.00,WeatherCatV1.11B39,2013-03-04 11:45:00,
2013-03-04 06:50:00,29.5,22.3,29.64,SW,217,1.0,3.0,74,0.00,,,0.00,WeatherCatV1.11B39,2013-03-04 11:50:00,
2013-03-04 06:55:00,29.7,22.4,29.64,SW,225,1.0,3.0,74,0.00,,,0.00,WeatherCatV1.11B39,2013-03-04 11:55:00,
2013-03-04 07:00:00,29.8,22.2,29.65,SW,215,3.0,6.0,73,0.00,,,0.00,WeatherCatV1.11B39,2013-03-04 12:00:00,
2013-03-04 07:05:00,29.8,22.2,29.65,NNE,22,0.0,2.0,73,0.00,,,0.00,WeatherCatV1.11B39,2013-03-04 12:05:00,
2013-03-04 07:10:00,29.9,22.0,29.65,SW,224,1.0,1.0,72,0.00,,,0.00,WeatherCatV1.11B39,2013-03-04 12:10:00,
2013-03-04 07:15:00,30.2,22.3,29.65,WSW,240,5.0,5.0,72,0.00,,,0.00,WeatherCatV1.11B39,2013-03-04 12:15:00,
2013-03-04 07:20:00,30.4,22.1,29.65,NNE,21,2.0,10.0,71,0.00,,,0.00,WeatherCatV1.11B39,2013-03-04 12:20:00,
2013-03-04 07:25:00,30.6,22.0,29.65,WSW,239,4.0,7.0,70,0.00,,,0.00,WeatherCatV1.11B39,2013-03-04 12:25:00,
2013-03-04 07:30:00,30.8,22.2,29.65,SSW,209,1.0,2.0,70,0.00,,,0.00,WeatherCatV1.11B39,2013-03-04 12:30:00,
2013-03-04 07:35:00,31.0,22.0,29.65,ENE,58,4.0,7.0,69,0.00,,,0.00,WeatherCatV1.11B39,2013-03-04 12:35:00,
2013-03-04 07:40:00,31.2,21.9,29.65,East,82,2.0,4.0,68,0.00,,,0.00,WeatherCatV1.11B39,2013-03-04 12:40:00,
2013-03-04 07:45:00,31.4,22.1,29.65,North,11,1.0,6.0,68,0.00,,,0.00,WeatherCatV1.11B39,2013-03-04 12:45:00,
2013-03-04 07:50:00,31.6,21.9,29.65,West,274,3.0,7.0,67,0.00,,,0.00,WeatherCatV1.11B39,2013-03-04 12:50:00,
2013-03-04 07:55:00,31.7,22.0,29.65,NE,47,1.0,9.0,67,0.00,,,0.00,WeatherCatV1.11B39,2013-03-04 12:55:00,
2013-03-04 08:00:00,31.8,22.1,29.65,West,264,1.0,2.0,67,0.00,,,0.00,WeatherCatV1.11B39,2013-03-04 13:00:00,
2013-03-04 08:05:00,32.0,22.3,29.65,WNW,302,0.0,1.0,67,0.00,,,0.00,WeatherCatV1.11B39,2013-03-04 13:05:00,
2013-03-04 08:10:00,32.3,22.2,29.64,NW,321,4.0,9.0,66,0.00,,,0.00,WeatherCatV1.11B39,2013-03-04 13:10:00,
2013-03-04 08:15:00,32.2,21.8,29.65,South,191,3.0,5.0,65,0.00,,,0.00,WeatherCatV1.11B39,2013-03-04 13:15:00,
2013-03-04 08:20:00,32.4,22.0,29.65,West,263,0.0,6.0,65,0.00,,,0.00,WeatherCatV1.11B39,2013-03-04 13:20:00,
2013-03-04 08:25:00,32.6,21.8,29.64,ESE,117,7.0,8.0,64,0.00,,,0.00,WeatherCatV1.11B39,2013-03-04 13:25:00,
2013-03-04 08:30:00,32.8,22.3,29.64,SW,222,1.0,5.0,65,0.00,,,0.00,WeatherCatV1.11B39,2013-03-04 13:30:00,
2013-03-04 08:35:00,33.0,22.2,29.64,SW,236,0.0,3.0,64,0.00,,,0.00,WeatherCatV1.11B39,2013-03-04 13:35:00,
2013-03-04 08:40:00,33.3,22.1,29.64,SW,225,3.0,8.0,63,0.00,,,0.00,WeatherCatV1.11B39,2013-03-04 13:40:00,
2013-03-04 08:45:00,33.4,22.2,29.64,West,280,3.0,8.0,63,0.00,,,0.00,WeatherCatV1.11B39,2013-03-04 13:45:00,
2013-03-04 08:50:00,33.6,22.0,29.64,NE,49,2.0,10.0,62,0.00,,,0.00,WeatherCatV1.11B39,2013-03-04 13:50:00,
2013-03-04 08:55:00,34.0,22.4,29.63,SW,235,2.0,6.0,62,0.00,,,0.00,WeatherCatV1.11B39,2013-03-04 13:55:00,
2013-03-04 09:00:00,34.4,22.4,29.63,WNW,296,1.0,5.0,61,0.00,,,0.00,WeatherCatV1.11B39,2013-03-04 14:00:00,
2013-03-04 09:05:00,34.6,22.6,29.63,SSE,152,1.0,6.0,61,0.00,,,0.00,WeatherCatV1.11B39,2013-03-04 14:05:00,
2013-03-04 09:10:00,35.0,22.9,29.63,WSW,246,0.0,4.0,61,0.00,,,0.00,WeatherCatV1.11B39,2013-03-04 14:10:00,
2013-03-04 09:15:00,35.6,23.1,29.63,SW,235,0.0,2.0,60,0.00,,,0.00,WeatherCatV1.11B39,2013-03-04 14:15:00,
2013-03-04 09:20:00,35.9,22.6,29.63,NE,56,1.0,6.0,58,0.00,,,0.00,WeatherCatV1.11B39,2013-03-04 14:20:00,
2013-03-04 09:25:00,36.0,22.7,29.62,NE,36,2.0,7.0,58,0.00,,,0.00,WeatherCatV1.11B39,2013-03-04 14:25:00,
2013-03-04 09:30:00,36.2,22.9,29.63,WSW,238,2.0,3.0,58,0.00,,,0.00,WeatherCatV1.11B39,2013-03-04 14:30:00,
2013-03-04 09:35:00,36.8,23.0,29.63,North,4,5.0,10.0,57,0.00,,,0.00,WeatherCatV1.11B39,2013-03-04 14:35:00,
2013-03-04 09:40:00,37.1,23.7,29.63,NE,39,3.0,5.0,58,0.00,,,0.00,WeatherCatV1.11B39,2013-03-04 14:40:00,
2013-03-04 09:45:00,37.3,23.1,29.63,SW,217,2.0,5.0,56,0.00,,,0.00,WeatherCatV1.11B39,2013-03-04 14:45:00,
2013-03-04 09:50:00,37.5,22.8,29.63,WSW,249,0.0,8.0,55,0.00,,,0.00,WeatherCatV1.11B39,2013-03-04 14:50:00,
2013-03-04 09:55:00,37.6,22.9,29.63,West,259,0.0,9.0,55,0.00,,,0.00,WeatherCatV1.11B39,2013-03-04 14:55:00,
2013-03-04 10:00:00,37.8,22.7,29.63,NNW,331,2.0,5.0,54,0.00,,,0.00,WeatherCatV1.11B39,2013-03-04 15:00:00,
2013-03-04 10:05:00,37.5,22.8,29.63,WSW,242,6.0,10.0,55,0.00,,,0.00,WeatherCatV1.11B39,2013-03-04 15:05:00,
2013-03-04 10:10:00,37.6,22.5,29.63,North,11,3.0,5.0,54,0.00,,,0.00,WeatherCatV1.11B39,2013-03-04 15:10:00,
2013-03-04 10:15:00,37.4,22.3,29.62,NNE,16,1.0,3.0,54,0.00,,,0.00,WeatherCatV1.11B39,2013-03-04 15:15:00,
2013-03-04 10:20:00,37.5,22.8,29.62,WSW,252,2.0,9.0,55,0.00,,,0.00,WeatherCatV1.11B39,2013-03-04 15:20:00,
2013-03-04 10:25:00,37.7,22.6,29.62,NNW,331,4.0,9.0,54,0.00,,,0.00,WeatherCatV1.11B39,2013-03-04 15:25:00,
2013-03-04 10:30:00,38.1,22.9,29.62,SSW,208,7.0,8.0,54,0.00,,,0.00,WeatherCatV1.11B39,2013-03-04 15:30:00,
2013-03-04 10:35:00,38.4,22.8,29.62,WSW,255,2.0,8.0,53,0.00,,,0.00,WeatherCatV1.11B39,2013-03-04 15:35:00,
2013-03-04 10:40:00,38.7,23.1,29.62,North,359,7.0,10.0,53,0.00,,,0.00,WeatherCatV1.11B39,2013-03-04 15:40:00,
2013-03-04 10:45:00,39.1,23.0,29.62,NNW,330,4.0,8.0,52,0.00,,,0.00,WeatherCatV1.11B39,2013-03-04 15:45:00,
2013-03-04 10:50:00,39.3,23.2,29.62,North,351,3.0,8.0,52,0.00,,,0.00,WeatherCatV1.11B39,2013-03-04 15:50:00,
2013-03-04 10:55:00,38.9,22.3,29.61,NNW,335,3.0,10.0,51,0.00,,,0.00,WeatherCatV1.11B39,2013-03-04 15:55:00,
2013-03-04 11:00:00,39.1,23.0,29.61,SW,225,3.0,7.0,52,0.00,,,0.00,WeatherCatV1.11B39,2013-03-04 16:00:00,
2013-03-04 11:05:00,39.3,22.7,29.62,NW,321,2.0,9.0,51,0.00,,,0.00,WeatherCatV1.11B39,2013-03-04 16:05:00,
2013-03-04 11:10:00,39.1,23.0,29.62,NW,325,1.0,3.0,52,0.00,,,0.00,WeatherCatV1.11B39,2013-03-04 16:10:00,
2013-03-04 11:15:00,39.1,23.0,29.62,SSW,204,1.0,9.0,52,0.00,,,0.00,WeatherCatV1.11B39,2013-03-04 16:15:00,
2013-03-04 11:20:00,39.5,22.9,29.62,West,269,4.0,9.0,51,0.00,,,0.00,WeatherCatV1.11B39,2013-03-04 16:20:00,
2013-03-04 11:25:00,39.4,22.8,29.62,WSW,250,4.0,10.0,51,0.00,,,0.00,WeatherCatV1.11B39,2013-03-04 16:25:00,
2013-03-04 11:30:00,39.3,22.7,29.62,North,352,2.0,4.0,51,0.00,,,0.00,WeatherCatV1.11B39,2013-03-04 16:30:00,
2013-03-04 11:35:00,39.1,23.0,29.62,ESE,115,2.0,6.0,52,0.00,,,0.00,WeatherCatV1.11B39,2013-03-04 16:35:00,
2013-03-04 11:40:00,39.2,23.1,29.62,SSW,204,2.0,4.0,52,0.00,,,0.00,WeatherCatV1.11B39,2013-03-04 16:40:00,
2013-03-04 11:45:00,39.3,23.2,29.62,SW,228,2.0,9.0,52,0.00,,,0.00,WeatherCatV1.11B39,2013-03-04 16:45:00,
2013-03-04 11:50:00,39.3,23.2,29.62,SSE,150,6.0,6.0,52,0.00,,,0.00,WeatherCatV1.11B39,2013-03-04 16:50:00,
2013-03-04 11:55:00,39.5,23.3,29.61,North,353,3.0,10.0,52,0.00,,,0.00,WeatherCatV1.11B39,2013-03-04 16:55:00,
2013-03-04 12:00:00,39.6,23.0,29.62,SSE,157,2.0,4.0,51,0.00,,,0.00,WeatherCatV1.11B39,2013-03-04 17:00:00,
2013-03-04 12:05:00,39.6,23.0,29.61,WSW,255,0.0,7.0,51,0.00,,,0.00,WeatherCatV1.11B39,2013-03-04 17:05:00,
2013-03-04 12:10:00,39.8,23.2,29.61,WNW,284,5.0,7.0,51,0.00,,,0.00,WeatherCatV1.11B39,2013-03-04 17:10:00,
2013-03-04 12:15:00,40.2,23.5,29.61,NNW,346,7.0,9.0,51,0.00,,,0.00,WeatherCatV1.11B39,2013-03-04 17:15:00,
2013-03-04 12:20:00,40.3,23.2,29.61,NNE,23,2.0,5.0,50,0.00,,,0.00,WeatherCatV1.11B39,2013-03-04 17:20:00,
2013-03-04 12:25:00,40.8,23.6,29.61,SSE,158,4.0,5.0,50,0.00,,,0.00,WeatherCatV1.11B39,2013-03-04 17:25:00,
2013-03-04 12:30:00,40.9,23.2,29.61,NNE,15,7.0,7.0,49,0.00,,,0.00,WeatherCatV1.11B39,2013-03-04 17:30:00,
2013-03-04 12:35:00,40.8,23.6,29.61,SSW,211,1.0,7.0,50,0.00,,,0.00,WeatherCatV1.11B39,2013-03-04 17:35:00,
2013-03-04 12:40:00,40.8,23.6,29.61,SSW,209,1.0,5.0,50,0.00,,,0.00,WeatherCatV1.11B39,2013-03-04 17:40:00,
2013-03-04 12:45:00,41.0,23.3,29.61,South,187,6.0,11.0,49,0.00,,,0.00,WeatherCatV1.11B39,2013-03-04 17:45:00,
2013-03-04 12:50:00,40.4,23.2,29.60,North,9,11.0,12.0,50,0.00,,,0.00,WeatherCatV1.11B39,2013-03-04 17:50:00,
2013-03-04 12:55:00,39.8,23.2,29.60,NNE,23,5.0,5.0,51,0.00,,,0.00,WeatherCatV1.11B39,2013-03-04 17:55:00,
2013-03-04 13:00:00,39.4,23.3,29.60,WNW,294,3.0,10.0,52,0.00,,,0.00,WeatherCatV1.11B39,2013-03-04 18:00:00,
2013-03-04 13:05:00,39.1,23.0,29.60,NNE,30,0.0,7.0,52,0.00,,,0.00,WeatherCatV1.11B39,2013-03-04 18:05:00,
2013-03-04 13:10:00,39.3,23.2,29.60,North,11,1.0,4.0,52,0.00,,,0.00,WeatherCatV1.11B39,2013-03-04 18:10:00,
2013-03-04 13:15:00,39.5,23.3,29.60,West,259,3.0,5.0,52,0.00,,,0.00,WeatherCatV1.11B39,2013-03-04 18:15:00,
2013-03-04 13:20:00,39.7,23.5,29.60,West,276,1.0,3.0,52,0.00,,,0.00,WeatherCatV1.11B39,2013-03-04 18:20:00,
2013-03-04 13:25:00,40.3,23.2,29.59,North,349,3.0,9.0,50,0.00,,,0.00,WeatherCatV1.11B39,2013-03-04 18:25:00,
2013-03-04 13:29:00,40.4,23.7,29.60,South,187,3.0,5.0,51,0.00,,,0.00,WeatherCatV1.11B39,2013-03-04 18:29:00,
2013-03-04 13:34:00,40.4,23.7,29.59,SW,236,0.0,4.0,51,0.00,,,0.00,WeatherCatV1.11B39,2013-03-04 18:34:00,
2013-03-04 13:39:00,40.5,23.8,29.60,SE,139,2.0,2.0,51,0.00,,,0.00,WeatherCatV1.11B39,2013-03-04 18:39:00,
2013-03-04 13:44:00,40.6,23.9,29.60,WNW,300,0.0,4.0,51,0.00,,,0.00,WeatherCatV1.11B39,2013-03-04 18:44:00,
2013-03-04 13:49:00,40.4,23.2,29.60,North,359,1.0,7.0,50,0.00,,,0.00,WeatherCatV1.11B39,2013-03-04 18:49:00,
2013-03-04 13:54:00,40.3,23.6,29.60,South,172,2.0,4.0,51,0.00,,,0.00,WeatherCatV1.11B39,2013-03-04 18:54:00,
2013-03-04 13:59:00,40.1,23.9,29.59,NNW,341,2.0,7.0,52,0.00,,,0.00,WeatherCatV1.11B39,2013-03-04 18:59:00,
2013-03-04 14:04:00,40.0,24.3,29.59,NNW,337,5.0,7.0,53,0.00,,,0.00,WeatherCatV1.11B39,2013-03-04 19:04:00,
2013-03-04 14:09:00,40.0,23.8,29.59,South,170,1.0,7.0,52,0.00,,,0.00,WeatherCatV1.11B39,2013-03-04 19:09:00,
2013-03-04 14:14:00,40.3,24.5,29.60,NNE,25,2.0,5.0,53,0.00,,,0.00,WeatherCatV1.11B39,2013-03-04 19:14:00,
2013-03-04 14:19:00,40.5,24.3,29.59,SSW,198,2.0,6.0,52,0.00,,,0.00,WeatherCatV1.11B39,2013-03-04 19:19:00,
2013-03-04 14:24:00,40.4,24.6,29.60,SW,234,0.0,4.0,53,0.00,,,0.00,WeatherCatV1.11B39,2013-03-04 19:24:00,
2013-03-04 14:29:00,40.5,24.3,29.60,SSW,205,2.0,2.0,52,0.00,,,0.00,WeatherCatV1.11B39,2013-03-04 19:29:00,
2013-03-04 14:34:00,40.2,24.5,29.60,West,260,1.0,4.0,53,0.00,,,0.00,WeatherCatV1.11B39,2013-03-04 19:34:00,
2013-03-04 14:39:00,39.9,24.6,29.60,South,187,2.0,7.0,54,0.00,,,0.00,WeatherCatV1.11B39,2013-03-04 19:39:00,
2013-03-04 14:44:00,39.8,25.0,29.60,SSW,205,2.0,5.0,55,0.00,,,0.00,WeatherCatV1.11B39,2013-03-04 19:44:00,
2013-03-04 14:49:00,39.8,25.0,29.60,SW,233,1.0,3.0,55,0.00,,,0.00,WeatherCatV1.11B39,2013-03-04 19:49:00,
2013-03-04 14:54:00,40.0,25.2,29.60,NNE,32,2.0,4.0,55,0.00,,,0.00,WeatherCatV1.11B39,2013-03-04 19:54:00,
2013-03-04 14:59:00,39.9,25.5,29.60,WSW,242,2.0,5.0,56,0.00,,,0.00,WeatherCatV1.11B39,2013-03-04 19:59:00,
2013-03-04 15:04:00,39.6,25.6,29.60,WSW,255,3.0,13.0,57,0.00,,,0.00,WeatherCatV1.11B39,2013-03-04 20:04:00,
2013-03-04 15:09:00,39.2,25.7,29.60,North,1,3.0,6.0,58,0.00,,,0.00,WeatherCatV1.11B39,2013-03-04 20:09:00,
2013-03-04 15:14:00,39.0,25.5,29.60,West,260,5.0,6.0,58,0.00,,,0.00,WeatherCatV1.11B39,2013-03-04 20:14:00,
2013-03-04 15:19:00,38.9,25.4,29.60,SSW,212,0.0,8.0,58,0.00,,,0.00,WeatherCatV1.11B39,2013-03-04 20:19:00,
2013-03-04 15:24:00,39.0,25.9,29.60,ENE,70,1.0,5.0,59,0.00,,,0.00,WeatherCatV1.11B39,2013-03-04 20:24:00,
2013-03-04 15:29:00,38.8,25.3,29.60,SSW,207,1.0,8.0,58,0.00,,,0.00,WeatherCatV1.11B39,2013-03-04 20:29:00,
2013-03-04 15:34:00,38.7,25.2,29.61,SSW,211,3.0,10.0,58,0.00,,,0.00,WeatherCatV1.11B39,2013-03-04 20:34:00,
2013-03-04 15:39:00,38.7,25.6,29.61,SE,143,0.0,1.0,59,0.00,,,0.00,WeatherCatV1.11B39,2013-03-04 20:39:00,
2013-03-04 15:44:00,38.6,25.5,29.60,NW,315,1.0,8.0,59,0.00,,,0.00,WeatherCatV1.11B39,2013-03-04 20:44:00,
2013-03-04 15:49:00,38.5,25.4,29.61,NNE,32,2.0,6.0,59,0.00,,,0.00,WeatherCatV1.11B39,2013-03-04 20:49:00,
2013-03-04 15:54:00,38.5,25.4,29.61,NNE,31,3.0,10.0,59,0.00,,,0.00,WeatherCatV1.11B39,2013-03-04 20:54:00,
2013-03-04 15:59:00,38.5,25.4,29.61,SE,141,1.0,6.0,59,0.00,,,0.00,WeatherCatV1.11B39,2013-03-04 20:59:00,
2013-03-04 16:04:00,38.5,25.4,29.61,North,352,7.0,9.0,59,0.00,,,0.00,WeatherCatV1.11B39,2013-03-04 21:04:00,
2013-03-04 16:09:00,38.5,25.4,29.61,NNW,348,0.0,5.0,59,0.00,,,0.00,WeatherCatV1.11B39,2013-03-04 21:09:00,
2013-03-04 16:14:00,38.5,25.8,29.62,ESE,102,7.0,7.0,60,0.00,,,0.00,WeatherCatV1.11B39,2013-03-04 21:14:00,
2013-03-04 16:19:00,38.2,26.0,29.62,SSW,204,2.0,6.0,61,0.00,,,0.00,WeatherCatV1.11B39,2013-03-04 21:19:00,
2013-03-04 16:24:00,37.8,25.6,29.62,NE,36,7.0,8.0,61,0.00,,,0.00,WeatherCatV1.11B39,2013-03-04 21:24:00,
2013-03-04 16:29:00,37.7,25.9,29.62,NNE,18,5.0,6.0,62,0.00,,,0.00,WeatherCatV1.11B39,2013-03-04 21:29:00,
2013-03-04 16:34:00,37.6,25.8,29.62,North,6,5.0,5.0,62,0.00,,,0.00,WeatherCatV1.11B39,2013-03-04 21:34:00,
2013-03-04 16:39:00,37.5,25.7,29.62,South,191,2.0,8.0,62,0.00,,,0.00,WeatherCatV1.11B39,2013-03-04 21:39:00,
2013-03-04 16:44:00,37.3,25.9,29.63,WSW,243,1.0,6.0,63,0.00,,,0.00,WeatherCatV1.11B39,2013-03-04 21:44:00,
2013-03-04 16:49:00,37.1,26.1,29.63,ESE,102,4.0,8.0,64,0.00,,,0.00,WeatherCatV1.11B39,2013-03-04 21:49:00,
2013-03-04 16:54:00,37.0,26.0,29.63,SW,224,1.0,6.0,64,0.00,,,0.00,WeatherCatV1.11B39,2013-03-04 21:54:00,
2013-03-04 16:59:00,36.8,26.9,29.64,SE,143,1.0,2.0,67,0.00,,,0.00,WeatherCatV1.11B39,2013-03-04 21:59:00,
2013-03-04 17:04:00,36.6,26.7,29.64,North,1,3.0,3.0,67,0.00,,,0.00,WeatherCatV1.11B39,2013-03-04 22:04:00,
2013-03-04 17:09:00,36.4,26.5,29.64,SW,225,1.0,5.0,67,0.00,,,0.00,WeatherCatV1.11B39,2013-03-04 22:09:00,
2013-03-04 17:14:00,36.3,26.4,29.64,South,172,1.0,2.0,67,0.00,,,0.00,WeatherCatV1.11B39,2013-03-04 22:14:00,
2013-03-04 17:19:00,36.3,26.8,29.64,WSW,255,2.0,2.0,68,0.00,,,0.00,WeatherCatV1.11B39,2013-03-04 22:19:00,
2013-03-04 17:24:00,36.2,26.7,29.64,WSW,239,3.0,6.0,68,0.00,,,0.00,WeatherCatV1.11B39,2013-03-04 22:24:00,
2013-03-04 17:29:00,36.0,26.8,29.65,South,190,1.0,1.0,69,0.00,,,0.00,WeatherCatV1.11B39,2013-03-04 22:29:00,
2013-03-04 17:34:00,35.8,26.6,29.65,NNE,26,2.0,9.0,69,0.00,,,0.00,WeatherCatV1.11B39,2013-03-04 22:34:00,
2013-03-04 17:39:00,35.7,26.5,29.66,North,7,2.0,2.0,69,0.00,,,0.00,WeatherCatV1.11B39,2013-03-04 22:39:00,
2013-03-04 17:44:00,35.7,26.5,29.65,WSW,245,1.0,6.0,69,0.00,,,0.00,WeatherCatV1.11B39,2013-03-04 22:44:00,
2013-03-04 17:49:00,35.6,26.8,29.66,NW,310,6.0,9.0,70,0.00,,,0.00,WeatherCatV1.11B39,2013-03-04 22:49:00,
2013-03-04 17:54:00,35.3,26.9,29.66,SSE,166,0.0,3.0,71,0.00,,,0.00,WeatherCatV1.11B39,2013-03-04 22:54:00,
2013-03-04 17:59:00,35.2,26.8,29.67,NNE,20,3.0,3.0,71,0.00,,,0.00,WeatherCatV1.11B39,2013-03-04 22:59:00,
2013-03-04 18:04:00,35.1,27.0,29.67,NW,325,1.0,2.0,72,0.00,,,0.00,WeatherCatV1.11B39,2013-03-04 23:04:00,
2013-03-04 18:09:00,34.9,27.1,29.67,NNW,335,1.0,11.0,73,0.00,,,0.00,WeatherCatV1.11B39,2013-03-04 23:09:00,
2013-03-04 18:14:00,34.5,27.4,29.68,SW,232,3.0,10.0,75,0.00,,,0.00,WeatherCatV1.11B39,2013-03-04 23:14:00,
2013-03-04 18:19:00,34.1,27.7,29.68,NNW,335,3.0,8.0,77,0.00,,,0.00,WeatherCatV1.11B39,2013-03-04 23:19:00,
2013-03-04 18:24:00,33.8,28.0,29.68,NNW,339,5.0,6.0,79,0.00,,,0.00,WeatherCatV1.11B39,2013-03-04 23:24:00,
2013-03-04 18:29:00,33.6,28.1,29.68,NNE,15,5.0,6.0,80,0.00,,,0.00,WeatherCatV1.11B39,2013-03-04 23:29:00,
2013-03-04 18:34:00,33.4,27.9,29.68,North,4,1.0,2.0,80,0.00,,,0.00,WeatherCatV1.11B39,2013-03-04 23:34:00,
2013-03-04 18:39:00,33.4,28.2,29.68,SW,217,2.0,4.0,81,0.00,,,0.00,WeatherCatV1.11B39,2013-03-04 23:39:00,
2013-03-04 18:44:00,33.3,28.1,29.69,NNW,331,0.0,3.0,81,0.00,,,0.00,WeatherCatV1.11B39,2013-03-04 23:44:00,
2013-03-04 18:49:00,33.2,28.3,29.69,SW,228,1.0,3.0,82,0.00,,,0.00,WeatherCatV1.11B39,2013-03-04 23:49:00,
2013-03-04 18:54:00,33.1,28.2,29.69,SW,224,3.0,11.0,82,0.00,,,0.00,WeatherCatV1.11B39,2013-03-04 23:54:00,
2013-03-04 18:59:00,32.8,28.2,29.69,NNE,22,4.0,4.0,83,0.00,,,0.00,WeatherCatV1.11B39,2013-03-04 23:59:00,
2013-03-04 19:04:00,32.7,28.4,29.69,NNW,339,3.0,4.0,84,0.00,,,0.00,WeatherCatV1.11B39,2013-03-05 00:04:00,
2013-03-04 19:09:00,32.5,28.2,29.69,NNE,16,1.0,2.0,84,0.00,,,0.00,WeatherCatV1.11B39,2013-03-05 00:09:00,
2013-03-04 19:14:00,32.5,28.2,29.70,WNW,283,5.0,6.0,84,0.00,,,0.00,WeatherCatV1.11B39,2013-03-05 00:14:00,
2013-03-04 19:19:00,32.5,28.2,29.69,WNW,302,0.0,1.0,84,0.00,,,0.00,WeatherCatV1.11B39,2013-03-05 00:19:00,
2013-03-04 19:24:00,32.5,28.2,29.69,SSE,160,0.0,2.0,84,0.00,,,0.00,WeatherCatV1.11B39,2013-03-05 00:24:00,
2013-03-04 19:29:00,32.6,28.0,29.69,NNW,343,2.0,5.0,83,0.00,,,0.00,WeatherCatV1.11B39,2013-03-05 00:29:00,
2013-03-04 19:34:00,32.6,28.0,29.69,SW,214,2.0,3.0,83,0.00,,,0.00,WeatherCatV1.11B39,2013-03-05 00:34:00,
2013-03-04 19:39:00,32.7,27.8,29.69,NW,323,2.0,5.0,82,0.00,,,0.00,WeatherCatV1.11B39,2013-03-05 00:39:00,
2013-03-04 19:44:00,32.8,27.6,29.69,North,5,3.0,4.0,81,0.00,,,0.00,WeatherCatV1.11B39,2013-03-05 00:44:00,
2013-03-04 19:49:00,32.9,27.4,29.69,North,6,3.0,3.0,80,0.00,,,0.00,WeatherCatV1.11B39,2013-03-05 00:49:00,
2013-03-04 19:54:00,32.9,27.4,29.70,NW,316,4.0,6.0,80,0.00,,,0.00,WeatherCatV1.11B39,2013-03-05 00:54:00,
2013-03-04 19:59:00,33.0,27.5,29.70,WSW,238,1.0,2.0,80,0.00,,,0.00,WeatherCatV1.11B39,2013-03-05 00:59:00,
2013-03-04 20:04:00,33.0,27.2,29.70,NW,320,3.0,6.0,79,0.00,,,0.00,WeatherCatV1.11B39,2013-03-05 01:04:00,
2013-03-04 20:09:00,33.0,27.2,29.70,NNW,342,2.0,3.0,79,0.00,,,0.00,WeatherCatV1.11B39,2013-03-05 01:09:00,
2013-03-04 20:14:00,33.0,27.2,29.70,NNE,13,0.0,1.0,79,0.00,,,0.00,WeatherCatV1.11B39,2013-03-05 01:14:00,
2013-03-04 20:19:00,33.0,27.2,29.71,NE,49,3.0,5.0,79,0.00,,,0.00,WeatherCatV1.11B39,2013-03-05 01:19:00,
2013-03-04 20:24:00,33.1,27.0,29.71,WNW,288,3.0,6.0,78,0.00,,,0.00,WeatherCatV1.11B39,2013-03-05 01:24:00,
2013-03-04 20:29:00,33.2,26.5,29.71,North,9,2.0,9.0,76,0.00,,,0.00,WeatherCatV1.11B39,2013-03-05 01:29:00,
2013-03-04 20:34:00,33.4,26.7,29.71,NW,321,2.0,3.0,76,0.00,,,0.00,WeatherCatV1.11B39,2013-03-05 01:34:00,
2013-03-04 20:39:00,33.5,26.4,29.71,WSW,248,1.0,3.0,75,0.00,,,0.00,WeatherCatV1.11B39,2013-03-05 01:39:00,
2013-03-04 20:44:00,33.5,25.8,29.71,NNW,338,1.0,15.0,73,0.00,,,0.00,WeatherCatV1.11B39,2013-03-05 01:44:00,
2013-03-04 20:49:00,33.5,25.8,29.71,SW,215,3.0,9.0,73,0.00,,,0.00,WeatherCatV1.11B39,2013-03-05 01:49:00,
2013-03-04 20:54:00,33.5,25.8,29.71,NNW,328,1.0,7.0,73,0.00,,,0.00,WeatherCatV1.11B39,2013-03-05 01:54:00,
2013-03-04 20:59:00,33.5,25.8,29.72,SSW,202,1.0,8.0,73,0.00,,,0.00,WeatherCatV1.11B39,2013-03-05 01:59:00,
2013-03-04 21:04:00,33.5,25.5,29.72,NW,311,0.0,1.0,72,0.00,,,0.00,WeatherCatV1.11B39,2013-03-05 02:04:00,
2013-03-04 21:09:00,33.5,25.5,29.72,North,1,3.0,7.0,72,0.00,,,0.00,WeatherCatV1.11B39,2013-03-05 02:09:00,
2013-03-04 21:14:00,33.5,25.1,29.72,WNW,301,1.0,5.0,71,0.00,,,0.00,WeatherCatV1.11B39,2013-03-05 02:14:00,
2013-03-04 21:19:00,33.4,25.0,29.72,WNW,290,3.0,6.0,71,0.00,,,0.00,WeatherCatV1.11B39,2013-03-05 02:19:00,
2013-03-04 21:24:00,33.4,24.7,29.72,ENE,73,1.0,8.0,70,0.00,,,0.00,WeatherCatV1.11B39,2013-03-05 02:24:00,
2013-03-04 21:29:00,33.3,24.6,29.72,SW,221,3.0,5.0,70,0.00,,,0.00,WeatherCatV1.11B39,2013-03-05 02:29:00,
2013-03-04 21:35:00,33.3,24.2,29.72,South,176,2.0,9.0,69,0.00,,,0.00,WeatherCatV1.11B39,2013-03-05 02:35:00,
2013-03-04 21:40:00,33.2,24.5,29.72,SSW,193,1.0,10.0,70,0.00,,,0.00,WeatherCatV1.11B39,2013-03-05 02:40:00,
2013-03-04 21:45:00,33.1,24.4,29.73,NNE,22,4.0,6.0,70,0.00,,,0.00,WeatherCatV1.11B39,2013-03-05 02:45:00,
2013-03-04 21:50:00,33.1,24.1,29.73,WSW,249,1.0,5.0,69,0.00,,,0.00,WeatherCatV1.11B39,2013-03-05 02:50:00,
2013-03-04 21:55:00,33.0,24.0,29.73,NNE,27,4.0,7.0,69,0.00,,,0.00,WeatherCatV1.11B39,2013-03-05 02:55:00,
2013-03-04 22:00:00,33.0,24.3,29.73,North,351,2.0,13.0,70,0.00,,,0.00,WeatherCatV1.11B39,2013-03-05 03:00:00,
2013-03-04 22:05:00,33.0,24.0,29.73,WSW,245,2.0,8.0,69,0.00,,,0.00,WeatherCatV1.11B39,2013-03-05 03:05:00,
2013-03-04 22:10:00,33.0,24.0,29.73,SSW,207,0.0,8.0,69,0.00,,,0.00,WeatherCatV1.11B39,2013-03-05 03:10:00,
2013-03-04 22:15:00,33.0,24.0,29.73,NNW,333,3.0,8.0,69,0.00,,,0.00,WeatherCatV1.11B39,2013-03-05 03:15:00,
2013-03-04 22:20:00,33.0,24.0,29.74,WSW,248,0.0,4.0,69,0.00,,,0.00,WeatherCatV1.11B39,2013-03-05 03:20:00,
2013-03-04 22:25:00,33.0,24.0,29.74,NNE,13,6.0,8.0,69,0.00,,,0.00,WeatherCatV1.11B39,2013-03-05 03:25:00,
2013-03-04 22:30:00,32.9,23.9,29.74,NNW,343,3.0,6.0,69,0.00,,,0.00,WeatherCatV1.11B39,2013-03-05 03:30:00,
2013-03-04 22:35:00,32.9,23.9,29.74,NNE,13,0.0,4.0,69,0.00,,,0.00,WeatherCatV1.11B39,2013-03-05 03:35:00,
2013-03-04 22:40:00,32.9,23.9,29.74,ESE,121,1.0,7.0,69,0.00,,,0.00,WeatherCatV1.11B39,2013-03-05 03:40:00,
2013-03-04 22:45:00,32.9,23.9,29.74,NNW,342,2.0,5.0,69,0.00,,,0.00,WeatherCatV1.11B39,2013-03-05 03:45:00,
2013-03-04 22:50:00,32.9,23.9,29.74,North,6,7.0,8.0,69,0.00,,,0.00,WeatherCatV1.11B39,2013-03-05 03:50:00,
2013-03-04 22:55:00,32.8,23.8,29.74,NNW,335,2.0,12.0,69,0.00,,,0.00,WeatherCatV1.11B39,2013-03-05 03:55:00,
2013-03-04 23:00:00,32.8,23.8,29.74,WSW,258,1.0,8.0,69,0.00,,,0.00,WeatherCatV1.11B39,2013-03-05 04:00:00,
2013-03-04 23:05:00,32.8,23.8,29.74,SW,222,1.0,4.0,69,0.00,,,0.00,WeatherCatV1.11B39,2013-03-05 04:05:00,
2013-03-04 23:10:00,32.7,23.7,29.74,ESE,105,1.0,7.0,69,0.00,,,0.00,WeatherCatV1.11B39,2013-03-05 04:10:00,
2013-03-04 23:15:00,32.7,23.7,29.75,North,0,1.0,9.0,69,0.00,,,0.00,WeatherCatV1.11B39,2013-03-05 04:15:00,
2013-03-04 23:20:00,32.7,23.7,29.75,North,359,1.0,4.0,69,0.00,,,0.00,WeatherCatV1.11B39,2013-03-05 04:20:00,
2013-03-04 23:25:00,32.6,23.9,29.75,NW,321,2.0,2.0,70,0.00,,,0.00,WeatherCatV1.11B39,2013-03-05 04:25:00,
2013-03-04 23:30:00,32.4,23.7,29.75,NNW,331,2.0,3.0,70,0.00,,,0.00,WeatherCatV1.11B39,2013-03-05 04:30:00,
2013-03-04 23:35:00,32.3,23.6,29.75,North,355,3.0,3.0,70,0.00,,,0.00,WeatherCatV1.11B39,2013-03-05 04:35:00,
2013-03-04 23:40:00,32.1,23.4,29.75,NNE,23,1.0,2.0,70,0.00,,,0.00,WeatherCatV1.11B39,2013-03-05 04:40:00,
2013-03-04 23:45:00,32.0,23.3,29.75,NNW,330,3.0,4.0,70,0.00,,,0.00,WeatherCatV1.11B39,2013-03-05 04:45:00,
2013-03-04 23:50:00,32.0,23.3,29.75,North,359,3.0,9.0,70,0.00,,,0.00,WeatherCatV1.11B39,2013-03-05 04:50:00,
2013-03-04 23:55:00,32.2,23.5,29.75,North,9,1.0,5.0,70,0.00,,,0.00,WeatherCatV1.11B39,2013-03-05 04:55:00,